#timestamp,LO_Frequency,Hit,StdDev 
1605668415.8,286047000.0,N
1605668435.6,286046998.8,N
1605668455.4,286046997.9,N
1605668475.3,286046993.7,N
1605668495.1,286046998.7,N
1605668515.9,286047000.5,N
1605668535.7,286046999.7,N
1605668555.5,286046996.8,N
1605668575.4,286046997.7,N
1605668595.2,286046993.3,Y
1605668615.1,286046994.2,P
1605668616.0,286046994.2,N
1605668635.8,286046992.4,P
1605668655.6,286046992.2,Y
1605668675.5,286046996.9,P
1605668695.3,286046998.1,N
1605668715.1,286047004.4,P
1605668735.9,286047004.3,N
1605668755.7,286047004.6,N
1605668775.6,286047005.5,N
1605668795.4,286047002.9,N
1605668815.2,286047011.9,Y
1605668835.1,286047000.5,P
1605668836.0,286047000.5,N
1605668855.8,286047000.7,N
1605668875.7,286047001.7,Y
1605668895.5,286047001.9,P
1605668915.3,286047000.9,N
1605668935.2,286046996.7,P
1605668955.9,286046996.7,N
1605668975.7,286046999.3,N
1605668995.6,286046996.8,N
1605669015.4,286046997.8,N
1605669035.2,286047000.8,N
1605669055.1,286046998.6,N
1605669056.0,286046998.6,N
1605669075.8,286046998.8,N
1605669095.7,286046997.0,N
1605669115.5,286046999.3,N
1605669135.3,286046998.6,N
1605669155.2,286047000.2,N
1605669175.0,286047002.7,N
1605669175.9,286047002.7,N
1605669195.7,286047000.1,N
1605669215.6,286047002.5,N
1605669235.4,286047001.9,N
1605669255.3,286047000.2,N
1605669275.1,286047000.9,N
1605669276.0,286047000.9,N
1605669295.8,286046998.2,N
1605669315.7,286046999.9,N
1605669335.5,286047000.5,N
1605669355.3,286047000.8,N
1605669375.2,286046999.9,N
1605669395.0,286047002.8,N
1605669395.9,286047002.8,N
1605669415.8,286047000.9,N
1605669435.6,286046998.4,N
1605669455.4,286046999.6,N
1605669475.3,286046995.4,N
1605669495.1,286046999.5,N
1605669515.8,286046997.2,N
1605669535.7,286046999.0,N
1605669555.5,286047002.5,N
1605669575.4,286047000.1,N
1605669595.2,286046998.1,N
1605669615.0,286047001.2,N
1605669615.9,286047001.2,N
1605669635.8,286047002.7,N
1605669655.6,286047002.0,N
1605669675.5,286046999.0,N
1605669695.3,286046997.1,N
1605669715.1,286046998.4,N
1605669735.9,286047001.1,N
1605669755.7,286046996.8,N
1605669775.6,286046995.4,N
1605669795.4,286047000.6,N
1605669815.2,286047002.6,N
1605669835.1,286047002.7,N
1605669836.0,286047002.7,N
1605669855.8,286046999.8,N
1605669875.7,286047002.5,N
1605669895.5,286047000.6,N
1605669915.3,286047000.4,N
1605669935.2,286047001.7,N
1605669955.9,286047000.3,N
1605669975.7,286047000.7,N
1605669995.6,286046996.6,N
1605670015.4,286046995.9,N
1605670035.3,286046997.6,N
1605670055.1,286046996.5,N
1605670056.0,286046996.5,N
1605670075.8,286046997.4,N
1605670095.7,286046994.3,N
1605670115.5,286046990.3,Y
1605670135.3,286046990.4,P
1605670155.2,286046993.6,N
1605670175.0,286046991.7,N
1605670175.9,286046991.7,N
1605670195.8,286046993.4,N
1605670215.6,286046995.8,N
1605670235.4,286046996.3,N
1605670255.3,286046994.5,N
1605670275.1,286046994.9,N
1605670295.8,286046996.0,N
1605670315.7,286046991.7,Y
1605670335.5,286047001.1,P
1605670355.4,286046998.1,N
1605670375.2,286046999.5,N
1605670395.0,286046998.7,N
1605670395.9,286046998.7,N
1605670415.8,286047000.3,N
1605670435.6,286047000.8,N
1605670455.5,286046999.0,N
1605670475.3,286046998.2,N
1605670495.1,286046998.8,N
1605670515.9,286047000.6,N
1605670535.7,286046999.8,N
1605670555.5,286047000.7,N
1605670575.4,286047000.9,N
1605670595.2,286047000.4,N
1605670615.1,286047002.7,N
1605670616.0,286047002.7,N
1605670635.8,286047003.8,N
1605670655.6,286047002.9,N
1605670675.5,286047002.9,N
1605670695.3,286047003.8,N
1605670715.1,286047002.5,N
1605670735.9,286047003.8,N
1605670755.7,286047002.5,N
1605670775.6,286046997.0,N
1605670795.4,286046998.4,N
1605670815.2,286046998.6,N
1605670835.1,286047001.1,N
1605670836.0,286047001.1,N
1605670855.8,286046998.4,N
1605670875.6,286046998.4,N
1605670895.5,286046999.6,N
1605670915.3,286046997.2,N
1605670935.2,286046998.5,N
1605670955.9,286046997.0,N
1605670975.7,286046999.6,N
1605670995.6,286046997.0,N
1605671015.4,286047001.2,N
1605671035.3,286047000.5,N
1605671055.1,286046996.6,N
1605671056.0,286046996.6,N
1605671075.8,286046997.4,N
1605671095.7,286046998.4,N
1605671115.5,286046995.0,N
1605671135.3,286046996.9,N
1605671155.2,286046998.6,N
1605671175.0,286046998.7,N
1605671175.9,286046998.7,N
1605671195.8,286046996.7,N
1605671215.6,286046998.7,N
1605671235.4,286046995.7,N
1605671255.3,286046995.2,N
1605671275.1,286046995.1,N
1605671295.9,286046993.5,Y
1605671315.7,286046997.5,P
1605671335.5,286046995.0,P
1605671355.4,286046997.8,N
1605671375.2,286046997.4,N
1605671395.0,286046998.9,N
1605671395.9,286046998.9,N
1605671415.8,286047000.3,N
1605671435.6,286046999.7,N
1605671455.5,286047000.6,N
1605671475.3,286047000.6,N
1605671495.1,286046997.1,N
1605671515.9,286046999.4,N
1605671535.7,286046995.4,N
1605671555.5,286046998.7,N
1605671575.4,286047000.8,N
1605671595.2,286047001.1,N
1605671615.1,286047002.0,N
1605671616.0,286047002.0,N
1605671635.8,286047002.0,N
1605671655.6,286047004.8,N
1605671675.5,286047003.5,N
1605671695.3,286047000.8,N
1605671715.2,286046998.2,N
1605671735.9,286047001.6,N
1605671755.7,286047005.2,N
1605671775.6,286047008.2,Y
1605671795.4,286047012.0,P
1605671815.2,286047012.0,N
1605671835.1,286047013.6,N
1605671836.0,286047013.6,N
1605671855.8,286047011.4,N
1605671875.7,286047011.7,N
1605671895.5,286047008.3,N
1605671915.3,286047009.4,N
1605671935.2,286047008.0,N
1605671955.0,286047008.2,N
1605671955.9,286047008.2,N
1605671975.8,286047008.1,N
1605671995.6,286047012.1,Y
